Location: Days
(41.3591°N, 106.7339°W)
Time: 11:05:46
(UTC+00:00)

UWE-3 - Visible Passes

Search period start: 30 June 2022 00:00
Search period end: 10 July 2022 00:00
Orbit: 581 x 679 km, 97.7° (Epoch: 29 June)

Date Brightness Start Highest point End Pass type
(mag) Time Alt. Az. Time Alt. Az. Time Alt. Az.
30 Jun ? 10:01:18 10° NNE 10:05:21 37° E 10:09:28 10° SSE visible
01 Jul ? 10:21:35 10° NNE 10:25:55 63° E 10:30:20 10° S visible
02 Jul ? 10:42:05 10° N 10:46:26 77° WNW 10:50:54 10° SSW visible
03 Jul ? 09:27:33 10° NE 09:30:23 17° E 09:33:13 10° SE visible
04 Jul ? 09:47:16 10° NE 09:51:02 27° E 09:54:51 10° SSE visible
05 Jul ? 10:07:23 10° NNE 10:11:38 45° E 10:15:57 10° S visible
06 Jul ? 10:27:44 10° NNE 10:32:11 76° ESE 10:36:42 10° S visible
07 Jul ? 09:14:16 10° ENE 09:15:58 12° E 09:17:40 10° ESE visible
07 Jul ? 10:48:16 10° N 10:52:40 65° WNW 10:57:09 10° SSW visible
08 Jul ? 09:33:23 10° NE 09:36:40 20° E 09:39:59 10° SE visible
09 Jul ? 09:53:16 10° NNE 09:57:18 32° E 10:01:23 10° SSE visible
